Weather in Esbjerg

Denmark     55°28′46″N   8°27′56″E
temp.,
°C
wind,
m/s
gust,
m/s
humid.,
%
clouds,
%
prec.,
mm/h
press.,
hPa
HPBL,
m
5 august, thu
thu523:00+12nne22795 0.0 101544
02:00+11e33852 0.0 101458
05:00+11e348625 0.0 101372
08:00+15ese457197 0.0 1013193
11:00+19ese566627 0.4 1012717
14:00+20se566422 2.9 1011995
17:00+21se675411 1.3 10101269
20:00+19ese59625 1.3 1009500
6 august, fri
fri623:00+15e512805 0.0 1009291
02:00+14ese713906 0.0 1007334
05:00+15e71489100 0.0 1006363
08:00+17ese8148298 0.0 1005535
11:00+20se8126691 0.3 1005894
14:00+22se91162100 2.2 10031290
17:00+18s81185100 4.8 1003867
20:00+17ese71187100 11.8 1003365
7 august, sat
sat723:00+16sse4891100 3.1 1003223
02:00+16s599264 4.6 1003372
05:00+16ssw71088100 2.2 1003485
08:00+17ssw7108342 3.3 1003765
11:00+17ssw798189 0.8 1004900
14:00+18ssw787225 1.4 10041036
17:00+19ssw66724 0.1 1004855
20:00+17sse2476100 0.1 1004191
8 august, sun
sun823:00+16sse5881100 0.4 1004255
02:00+15sse6108986 0.9 1004348
05:00+14se6995100 1.3 1003294
08:00+16sse698992 2.9 1002412
11:00+18ssw897523 1.7 1004868
14:00+19sw9107555 2.9 1005976
17:00+19sw897763 0.6 1006838
20:00+17w7108431 0.9 1007714
9 august, mon
mon923:00+16w698599 0.1 1009469
02:00+16wsw698372 0.4 1010438
05:00+15sw588355 0.0 1010304
08:00+17ssw81082100 0.8 1010641
11:00+15s81293100 6.2 1010723
14:00+18sw8108089 9.2 1011958
17:00+18sw9117844 1.1 10111048
20:00+16wsw10148420 2.1 1012941